User: anonymous   Login
Location: Cutler
(25.6150°N, 80.3110°W)
Time: 13:46:17
(UTC-04:00)
Language:

CUTE 1.7 + AOD 2 - Orbit

View from above orbital plane
View from above orbital plane
View from above satellite
View from above satellite

Ground track
Ground track

The orbit data is extracted from the following two-line orbital elements,

1 32785U 08021C   18146.86711950 +.00000196 +00000-0 +26825-4 0  9996
2 32785 097.5476 160.0627 0014668 107.3187 252.9636 14.88119132545936
Epoch (UTC): 26 May 2018 20:48:39
Eccentricity: 0.0014668
inclination: 97.5476°
perigee height: 593 km
apogee height: 614 km
right ascension of ascending node: 160.0627°
argument of perigee: 107.3187°
revolutions per day: 14.88119132
mean anomaly at epoch: 252.9636°
orbit number at epoch: 54593

The dashed part of the orbit path shows where the satellite is in the earth's shadow,  

DLR